Time,TemperatureF,DewpointF,PressureIn,WindDirection,WindDirectionDegrees,WindSpeedMPH,WindSpeedGustMPH,Humidity,HourlyPrecipIn,Conditions,Clouds,dailyrainin,SoftwareType,DateUTC
2013-03-26 00:00:00,34.8,26.7,29.97,NNW,330,0.0,3.0,72,0.00,,OVC065,0.00,VWS V14.01,2013-03-26 04:00:00,
2013-03-26 00:01:00,34.8,26.7,29.97,NNW,330,0.0,0.0,72,0.00,,OVC065,0.00,VWS V14.01,2013-03-26 04:01:00,
2013-03-26 00:07:00,34.8,26.7,29.97,NW,311,1.0,3.0,72,0.00,,OVC065,0.00,VWS V14.01,2013-03-26 04:07:00,
2013-03-26 00:12:00,34.7,26.6,29.97,WNW,302,0.0,1.0,72,0.00,,OVC065,0.00,VWS V14.01,2013-03-26 04:12:00,
2013-03-26 00:17:00,34.7,26.6,29.97,NW,315,0.0,2.0,72,0.00,,OVC065,0.00,VWS V14.01,2013-03-26 04:17:00,
2013-03-26 00:22:00,34.6,26.5,29.97,NW,311,2.0,3.0,72,0.00,,OVC070,0.00,VWS V14.01,2013-03-26 04:22:00,
2013-03-26 00:27:00,34.6,26.5,29.98,WNW,298,2.0,3.0,72,0.00,,OVC070,0.00,VWS V14.01,2013-03-26 04:27:00,
2013-03-26 00:33:00,34.5,26.4,29.98,NW,316,1.0,4.0,72,0.00,,OVC070,0.00,VWS V14.01,2013-03-26 04:33:00,
2013-03-26 00:38:00,34.5,26.8,29.98,NW,317,2.0,3.0,73,0.00,,OVC070,0.00,VWS V14.01,2013-03-26 04:38:00,
2013-03-26 00:43:00,34.4,26.7,29.98,NW,313,2.0,2.0,73,0.00,,OVC070,0.00,VWS V14.01,2013-03-26 04:43:00,
2013-03-26 00:48:00,34.4,26.7,29.98,NW,322,0.0,1.0,73,0.00,,OVC070,0.00,VWS V14.01,2013-03-26 04:48:00,
2013-03-26 00:53:00,34.3,26.6,29.98,NW,315,4.0,4.0,73,0.00,,OVC070,0.00,VWS V14.01,2013-03-26 04:53:00,
2013-03-26 00:58:00,34.3,26.6,29.98,WNW,303,3.0,3.0,73,0.00,,OVC070,0.00,VWS V14.01,2013-03-26 04:58:00,
2013-03-26 01:03:00,34.3,26.6,29.98,NW,304,2.0,5.0,73,0.00,,OVC070,0.00,VWS V14.01,2013-03-26 05:03:00,
2013-03-26 01:08:00,34.2,26.8,29.98,WNW,286,2.0,3.0,74,0.00,,OVC070,0.00,VWS V14.01,2013-03-26 05:08:00,
2013-03-26 01:14:00,34.2,26.8,29.98,WNW,302,0.0,1.0,74,0.00,,OVC070,0.00,VWS V14.01,2013-03-26 05:14:00,
2013-03-26 01:19:00,34.2,26.8,29.98,NW,310,0.0,1.0,74,0.00,,OVC070,0.00,VWS V14.01,2013-03-26 05:19:00,
2013-03-26 01:24:00,34.2,26.8,29.98,NW,306,2.0,5.0,74,0.00,,OVC070,0.00,VWS V14.01,2013-03-26 05:24:00,
2013-03-26 01:29:00,34.1,26.7,29.98,NW,318,0.0,3.0,74,0.00,,OVC070,0.00,VWS V14.01,2013-03-26 05:29:00,
2013-03-26 01:34:00,34.1,26.7,29.98,NW,325,1.0,1.0,74,0.00,,OVC070,0.00,VWS V14.01,2013-03-26 05:34:00,
2013-03-26 01:39:00,34.1,26.7,29.98,NNW,341,3.0,3.0,74,0.00,,OVC070,0.00,VWS V14.01,2013-03-26 05:39:00,
2013-03-26 01:44:00,34.1,27.0,29.98,NW,314,3.0,3.0,75,0.00,,OVC070,0.00,VWS V14.01,2013-03-26 05:44:00,
2013-03-26 01:50:00,34.1,27.0,29.98,NW,317,0.0,2.0,75,0.00,,OVC070,0.00,VWS V14.01,2013-03-26 05:50:00,
2013-03-26 01:55:00,34.1,27.0,29.98,NW,319,1.0,2.0,75,0.00,,OVC070,0.00,VWS V14.01,2013-03-26 05:55:00,
2013-03-26 02:00:00,34.1,27.0,29.98,NW,323,0.0,1.0,75,0.00,,OVC070,0.00,VWS V14.01,2013-03-26 06:00:00,
2013-03-26 02:05:00,34.0,26.9,29.98,NW,317,2.0,2.0,75,0.00,,OVC070,0.00,VWS V14.01,2013-03-26 06:05:00,
2013-03-26 02:10:00,34.0,27.2,29.99,NNW,346,1.0,3.0,76,0.00,,OVC070,0.00,VWS V14.01,2013-03-26 06:10:00,
2013-03-26 02:15:00,34.0,27.2,29.99,NW,324,0.0,0.0,76,0.00,,OVC070,0.00,VWS V14.01,2013-03-26 06:15:00,
2013-03-26 02:21:00,34.0,27.2,29.99,WNW,300,3.0,3.0,76,0.00,,OVC070,0.00,VWS V14.01,2013-03-26 06:21:00,
2013-03-26 02:26:00,34.0,27.2,29.99,NW,315,4.0,8.0,76,0.00,,OVC070,0.00,VWS V14.01,2013-03-26 06:26:00,
2013-03-26 02:31:00,34.0,27.6,29.99,NNW,336,4.0,6.0,77,0.00,,OVC070,0.00,VWS V14.01,2013-03-26 06:31:00,
2013-03-26 02:36:00,34.0,27.6,29.99,NW,307,2.0,2.0,77,0.00,,OVC070,0.00,VWS V14.01,2013-03-26 06:36:00,
2013-03-26 02:42:00,33.9,27.5,29.99,NW,306,1.0,4.0,77,0.00,,OVC070,0.00,VWS V14.01,2013-03-26 06:42:00,
2013-03-26 02:48:00,33.9,27.5,29.99,NW,310,2.0,5.0,77,0.00,,OVC070,0.00,VWS V14.01,2013-03-26 06:48:00,
2013-03-26 02:53:00,33.9,27.5,29.99,NW,326,1.0,5.0,77,0.00,,OVC070,0.00,VWS V14.01,2013-03-26 06:53:00,
2013-03-26 02:58:00,33.9,27.5,29.99,NW,326,0.0,2.0,77,0.00,,OVC070,0.00,VWS V14.01,2013-03-26 06:58:00,
2013-03-26 03:03:00,33.9,27.8,29.99,NW,321,1.0,3.0,78,0.00,,OVC070,0.00,VWS V14.01,2013-03-26 07:03:00,
2013-03-26 03:08:00,33.9,27.8,29.99,NW,311,2.0,3.0,78,0.00,,OVC070,0.00,VWS V14.01,2013-03-26 07:08:00,
2013-03-26 03:13:00,33.8,27.7,29.99,NW,311,2.0,3.0,78,0.00,,OVC070,0.00,VWS V14.01,2013-03-26 07:13:00,
2013-03-26 03:18:00,33.8,27.7,29.99,NW,307,2.0,4.0,78,0.00,,OVC070,0.00,VWS V14.01,2013-03-26 07:18:00,
2013-03-26 03:23:00,33.7,27.6,29.99,NW,324,0.0,2.0,78,0.00,,OVC070,0.00,VWS V14.01,2013-03-26 07:23:00,
2013-03-26 03:29:00,33.7,27.6,29.99,NNW,327,0.0,3.0,78,0.00,,OVC070,0.00,VWS V14.01,2013-03-26 07:29:00,
2013-03-26 03:34:00,33.7,27.6,29.99,NW,326,1.0,1.0,78,0.00,,OVC070,0.00,VWS V14.01,2013-03-26 07:34:00,
2013-03-26 03:39:00,33.6,27.8,29.99,NNW,332,2.0,4.0,79,0.00,,OVC070,0.00,VWS V14.01,2013-03-26 07:39:00,
2013-03-26 03:44:00,33.6,27.8,29.99,NW,319,0.0,0.0,79,0.00,,OVC070,0.00,VWS V14.01,2013-03-26 07:44:00,
2013-03-26 03:49:00,33.5,27.7,29.99,NW,321,0.0,0.0,79,0.00,,OVC070,0.00,VWS V14.01,2013-03-26 07:49:00,
2013-03-26 03:55:00,33.4,27.6,29.99,NW,321,0.0,0.0,79,0.00,,OVC070,0.00,VWS V14.01,2013-03-26 07:55:00,
2013-03-26 04:00:00,33.3,27.5,29.99,NW,322,0.0,0.0,79,0.00,,OVC070,0.00,VWS V14.01,2013-03-26 08:00:00,
2013-03-26 04:05:00,33.2,27.4,29.99,NW,321,0.0,0.0,79,0.00,,OVC070,0.00,VWS V14.01,2013-03-26 08:05:00,
2013-03-26 04:10:00,33.0,27.2,29.99,NW,319,0.0,0.0,79,0.00,,OVC070,0.00,VWS V14.01,2013-03-26 08:10:00,
2013-03-26 04:15:00,32.9,27.1,29.99,NW,317,0.0,0.0,79,0.00,,OVC070,0.00,VWS V14.01,2013-03-26 08:15:00,
2013-03-26 04:20:00,32.7,26.9,29.99,NW,319,0.0,0.0,79,0.00,,OVC070,0.00,VWS V14.01,2013-03-26 08:20:00,
2013-03-26 04:25:00,32.5,26.7,29.99,NW,318,0.0,0.0,79,0.00,,OVC070,0.00,VWS V14.01,2013-03-26 08:25:00,
2013-03-26 04:31:00,32.3,26.8,29.99,NW,322,0.0,0.0,80,0.00,,OVC070,0.00,VWS V14.01,2013-03-26 08:31:00,
2013-03-26 04:36:00,32.1,26.6,29.99,NW,322,0.0,0.0,80,0.00,,OVC070,0.00,VWS V14.01,2013-03-26 08:36:00,
2013-03-26 04:41:00,32.0,26.5,29.99,NW,310,1.0,5.0,80,0.00,,OVC070,0.00,VWS V14.01,2013-03-26 08:41:00,
2013-03-26 04:46:00,31.8,26.4,29.99,NW,324,1.0,2.0,80,0.00,,OVC070,0.00,VWS V14.01,2013-03-26 08:46:00,
2013-03-26 04:52:00,31.6,26.5,29.99,NW,319,3.0,6.0,81,0.00,,OVC070,0.00,VWS V14.01,2013-03-26 08:52:00,
2013-03-26 04:57:00,31.6,26.5,29.99,NW,314,0.0,2.0,81,0.00,,OVC070,0.00,VWS V14.01,2013-03-26 08:57:00,
2013-03-26 05:02:00,31.5,26.4,29.99,NW,316,1.0,3.0,81,0.00,,OVC070,0.00,VWS V14.01,2013-03-26 09:02:00,
2013-03-26 05:07:00,31.3,26.2,29.99,NW,314,1.0,3.0,81,0.00,,OVC070,0.00,VWS V14.01,2013-03-26 09:07:00,
2013-03-26 05:12:00,31.2,26.4,29.99,NW,309,2.0,4.0,82,0.00,,OVC070,0.00,VWS V14.01,2013-03-26 09:12:00,
2013-03-26 05:17:00,31.1,26.3,30.00,NW,310,1.0,3.0,82,0.00,,OVC070,0.00,VWS V14.01,2013-03-26 09:17:00,
2013-03-26 05:23:00,31.0,26.2,30.00,NW,310,1.0,2.0,82,0.00,,OVC070,0.00,VWS V14.01,2013-03-26 09:23:00,
2013-03-26 05:28:00,30.9,26.1,30.00,NW,310,1.0,3.0,82,0.00,,OVC070,0.00,VWS V14.01,2013-03-26 09:28:00,
2013-03-26 05:33:00,30.9,26.4,30.00,NW,314,1.0,4.0,83,0.00,,OVC070,0.00,VWS V14.01,2013-03-26 09:33:00,
2013-03-26 05:38:00,30.8,26.3,30.00,NW,304,4.0,4.0,83,0.00,,OVC070,0.00,VWS V14.01,2013-03-26 09:38:00,
2013-03-26 05:43:00,30.8,26.3,30.00,NW,309,3.0,5.0,83,0.00,,CLR,0.00,VWS V14.01,2013-03-26 09:43:00,
2013-03-26 05:48:00,30.8,26.3,30.00,NW,318,1.0,4.0,83,0.00,,CLR,0.00,VWS V14.01,2013-03-26 09:48:00,
2013-03-26 05:54:00,30.7,26.2,30.00,NW,311,1.0,5.0,83,0.00,,CLR,0.00,VWS V14.01,2013-03-26 09:54:00,
2013-03-26 05:59:00,30.8,26.3,30.00,WNW,291,5.0,5.0,83,0.00,,CLR,0.00,VWS V14.01,2013-03-26 09:59:00,
2013-03-26 06:04:00,30.8,26.5,30.00,NW,321,2.0,3.0,84,0.00,,CLR,0.00,VWS V14.01,2013-03-26 10:04:00,
2013-03-26 06:09:00,30.8,26.5,30.01,WNW,292,4.0,7.0,84,0.00,,CLR,0.00,VWS V14.01,2013-03-26 10:09:00,
2013-03-26 06:14:00,30.9,26.6,30.01,NW,312,1.0,3.0,84,0.00,,CLR,0.00,VWS V14.01,2013-03-26 10:14:00,
2013-03-26 06:19:00,30.9,26.6,30.01,WNW,292,3.0,4.0,84,0.00,,CLR,0.00,VWS V14.01,2013-03-26 10:19:00,
2013-03-26 06:24:00,31.0,26.7,30.01,WNW,303,1.0,2.0,84,0.00,,CLR,0.00,VWS V14.01,2013-03-26 10:24:00,
2013-03-26 06:29:00,31.0,26.7,30.01,NW,306,4.0,8.0,84,0.00,,CLR,0.00,VWS V14.01,2013-03-26 10:29:00,
2013-03-26 06:35:00,31.0,26.7,30.02,NW,316,4.0,5.0,84,0.00,,BKN075,0.00,VWS V14.01,2013-03-26 10:35:00,
2013-03-26 06:40:00,31.1,26.8,30.02,NW,306,3.0,4.0,84,0.00,,BKN075,0.00,VWS V14.01,2013-03-26 10:40:00,
2013-03-26 06:45:00,31.1,26.8,30.02,NW,307,1.0,5.0,84,0.00,,BKN075,0.00,VWS V14.01,2013-03-26 10:45:00,
2013-03-26 06:50:00,31.1,26.8,30.02,WNW,297,6.0,6.0,84,0.00,,BKN075,0.00,VWS V14.01,2013-03-26 10:50:00,
2013-03-26 06:55:00,31.1,26.8,30.02,WNW,291,2.0,6.0,84,0.00,,BKN075,0.00,VWS V14.01,2013-03-26 10:55:00,
2013-03-26 07:00:00,31.1,26.8,30.03,NW,307,1.0,6.0,84,0.00,,BKN075,0.00,VWS V14.01,2013-03-26 11:00:00,
2013-03-26 07:05:00,31.1,26.8,30.03,NW,306,2.0,6.0,84,0.00,,OVC070,0.00,VWS V14.01,2013-03-26 11:05:00,
2013-03-26 07:10:00,31.1,26.8,30.03,NW,315,2.0,7.0,84,0.00,,OVC070,0.00,VWS V14.01,2013-03-26 11:10:00,
2013-03-26 07:16:00,31.2,26.9,30.03,WNW,296,4.0,5.0,84,0.00,,OVC070,0.00,VWS V14.01,2013-03-26 11:16:00,
2013-03-26 07:22:00,31.2,26.9,30.03,NW,308,7.0,8.0,84,0.00,,OVC070,0.00,VWS V14.01,2013-03-26 11:22:00,
2013-03-26 07:27:00,31.2,26.9,30.03,WNW,292,3.0,4.0,84,0.00,,OVC070,0.00,VWS V14.01,2013-03-26 11:27:00,
2013-03-26 07:32:00,31.3,27.0,30.04,NNW,331,3.0,6.0,84,0.00,,OVC070,0.00,VWS V14.01,2013-03-26 11:32:00,
2013-03-26 07:38:00,31.3,27.3,30.04,NW,304,3.0,5.0,85,0.00,,OVC070,0.00,VWS V14.01,2013-03-26 11:38:00,
2013-03-26 07:43:00,31.4,27.4,30.04,NW,304,1.0,4.0,85,0.00,,OVC070,0.00,VWS V14.01,2013-03-26 11:43:00,
2013-03-26 07:48:00,31.4,27.4,30.04,NW,304,0.0,4.0,85,0.00,,OVC070,0.00,VWS V14.01,2013-03-26 11:48:00,
2013-03-26 07:54:00,31.5,27.5,30.04,NW,305,0.0,0.0,85,0.00,,OVC070,0.00,VWS V14.01,2013-03-26 11:54:00,
2013-03-26 07:59:00,31.5,27.5,30.04,NW,305,0.0,0.0,85,0.00,,OVC070,0.00,VWS V14.01,2013-03-26 11:59:00,
2013-03-26 08:04:00,31.6,27.6,30.05,West,280,2.0,3.0,85,0.00,,OVC070,0.00,VWS V14.01,2013-03-26 12:04:00,
2013-03-26 08:09:00,31.6,27.6,30.05,West,280,0.0,0.0,85,0.00,,OVC070,0.00,VWS V14.01,2013-03-26 12:09:00,
2013-03-26 08:14:00,31.6,27.6,30.05,NW,305,2.0,3.0,85,0.00,,OVC070,0.00,VWS V14.01,2013-03-26 12:14:00,
2013-03-26 08:19:00,31.7,27.7,30.05,NW,307,3.0,3.0,85,0.00,,OVC070,0.00,VWS V14.01,2013-03-26 12:19:00,
2013-03-26 08:24:00,31.8,27.8,30.05,West,277,3.0,4.0,85,0.00,,OVC070,0.00,VWS V14.01,2013-03-26 12:24:00,
2013-03-26 08:29:00,31.8,27.8,30.06,WNW,282,1.0,4.0,85,0.00,,OVC070,0.00,VWS V14.01,2013-03-26 12:29:00,
2013-03-26 08:35:00,31.9,27.9,30.06,West,268,4.0,6.0,85,0.00,,OVC070,0.00,VWS V14.01,2013-03-26 12:35:00,
2013-03-26 08:40:00,31.9,27.9,30.06,West,268,0.0,0.0,85,0.00,,OVC070,0.00,VWS V14.01,2013-03-26 12:40:00,
2013-03-26 08:45:00,32.0,28.0,30.06,WNW,285,4.0,6.0,85,0.00,,OVC070,0.00,VWS V14.01,2013-03-26 12:45:00,
2013-03-26 08:50:00,32.0,28.0,30.06,WNW,288,0.0,1.0,85,0.00,,OVC070,0.00,VWS V14.01,2013-03-26 12:50:00,
2013-03-26 08:55:00,32.2,28.2,30.06,WNW,288,0.0,0.0,85,0.00,,OVC070,0.00,VWS V14.01,2013-03-26 12:55:00,
2013-03-26 09:00:00,32.3,28.3,30.06,WNW,298,2.0,6.0,85,0.00,,OVC070,0.00,VWS V14.01,2013-03-26 13:00:00,
2013-03-26 09:05:00,32.4,28.4,30.07,WNW,287,4.0,7.0,85,0.00,,OVC070,0.00,VWS V14.01,2013-03-26 13:05:00,
2013-03-26 09:11:00,32.5,28.8,30.07,WNW,284,0.0,0.0,86,0.00,,OVC070,0.00,VWS V14.01,2013-03-26 13:11:00,
2013-03-26 09:16:00,32.7,28.7,30.07,WNW,282,3.0,5.0,85,0.00,,OVC070,0.00,VWS V14.01,2013-03-26 13:16:00,
2013-03-26 09:21:00,32.9,29.2,30.07,West,279,5.0,6.0,86,0.00,,OVC070,0.00,VWS V14.01,2013-03-26 13:21:00,
2013-03-26 09:27:00,33.0,29.3,30.07,WNW,300,3.0,5.0,86,0.00,,OVC070,0.00,VWS V14.01,2013-03-26 13:27:00,
2013-03-26 09:32:00,33.3,29.6,30.07,WNW,302,0.0,3.0,86,0.00,,OVC070,0.00,VWS V14.01,2013-03-26 13:32:00,
2013-03-26 09:37:00,33.6,29.9,30.07,West,276,4.0,8.0,86,0.00,,OVC070,0.00,VWS V14.01,2013-03-26 13:37:00,
2013-03-26 09:42:00,33.9,29.9,30.07,NW,318,6.0,9.0,85,0.00,,OVC070,0.00,VWS V14.01,2013-03-26 13:42:00,
2013-03-26 09:47:00,34.0,30.0,30.07,West,279,4.0,7.0,85,0.00,,OVC070,0.00,VWS V14.01,2013-03-26 13:47:00,
2013-03-26 09:52:00,34.1,30.1,30.07,NW,317,1.0,8.0,85,0.00,,OVC070,0.00,VWS V14.01,2013-03-26 13:52:00,
2013-03-26 09:57:00,34.2,30.2,30.07,West,280,1.0,6.0,85,0.00,,OVC070,0.00,VWS V14.01,2013-03-26 13:57:00,
2013-03-26 10:03:00,34.4,30.4,30.07,NW,311,1.0,5.0,85,0.00,,OVC070,0.00,VWS V14.01,2013-03-26 14:03:00,
2013-03-26 10:08:00,34.6,30.6,30.08,WNW,291,0.0,0.0,85,0.00,,OVC070,0.00,VWS V14.01,2013-03-26 14:08:00,
2013-03-26 10:13:00,34.7,30.7,30.08,West,268,4.0,6.0,85,0.00,,OVC070,0.00,VWS V14.01,2013-03-26 14:13:00,
2013-03-26 10:18:00,34.9,30.6,30.08,West,269,4.0,10.0,84,0.00,,OVC070,0.00,VWS V14.01,2013-03-26 14:18:00,
2013-03-26 10:23:00,35.0,30.7,30.08,West,271,5.0,7.0,84,0.00,,OVC070,0.00,VWS V14.01,2013-03-26 14:23:00,
2013-03-26 10:28:00,35.1,30.8,30.08,West,270,2.0,8.0,84,0.00,,OVC070,0.00,VWS V14.01,2013-03-26 14:28:00,
2013-03-26 10:33:00,35.3,31.0,30.08,WNW,303,0.0,0.0,84,0.00,,OVC070,0.00,VWS V14.01,2013-03-26 14:33:00,
2013-03-26 10:39:00,35.5,31.1,30.08,NW,315,6.0,9.0,84,0.00,,OVC070,0.00,VWS V14.01,2013-03-26 14:39:00,
2013-03-26 10:44:00,35.6,31.0,30.08,WNW,302,3.0,10.0,83,0.00,,OVC075,0.00,VWS V14.01,2013-03-26 14:44:00,
2013-03-26 10:49:00,35.8,31.1,30.08,WNW,300,7.0,10.0,83,0.00,,OVC075,0.00,VWS V14.01,2013-03-26 14:49:00,
2013-03-26 10:54:00,35.8,30.9,30.08,NW,309,1.0,4.0,82,0.00,,OVC075,0.00,VWS V14.01,2013-03-26 14:54:00,
2013-03-26 10:59:00,36.0,31.0,30.08,WNW,297,5.0,5.0,82,0.00,,OVC075,0.00,VWS V14.01,2013-03-26 14:59:00,
2013-03-26 11:04:00,36.3,31.3,30.09,WSW,256,3.0,8.0,82,0.00,,OVC075,0.00,VWS V14.01,2013-03-26 15:04:00,
2013-03-26 11:09:00,36.5,31.2,30.08,NW,326,3.0,10.0,81,0.00,,OVC075,0.00,VWS V14.01,2013-03-26 15:09:00,
2013-03-26 11:14:00,36.9,31.6,30.08,WNW,298,4.0,8.0,81,0.00,,OVC075,0.00,VWS V14.01,2013-03-26 15:14:00,
2013-03-26 11:19:00,37.4,31.8,30.08,WNW,290,6.0,12.0,80,0.00,,OVC075,0.00,VWS V14.01,2013-03-26 15:19:00,
2013-03-26 11:24:00,37.6,31.7,30.09,WNW,298,13.0,14.0,79,0.00,,OVC075,0.00,VWS V14.01,2013-03-26 15:24:00,
2013-03-26 11:30:00,37.8,31.9,30.09,NW,323,9.0,10.0,79,0.00,,OVC075,0.00,VWS V14.01,2013-03-26 15:30:00,
2013-03-26 11:35:00,38.1,31.9,30.08,NW,326,4.0,10.0,78,0.00,,OVC075,0.00,VWS V14.01,2013-03-26 15:35:00,
2013-03-26 11:40:00,38.5,32.2,30.08,West,274,3.0,8.0,78,0.00,,OVC075,0.00,VWS V14.01,2013-03-26 15:40:00,
2013-03-26 11:45:00,38.8,32.5,30.08,WNW,296,6.0,10.0,78,0.00,,OVC075,0.00,VWS V14.01,2013-03-26 15:45:00,
2013-03-26 11:50:00,39.1,32.2,30.08,WNW,282,3.0,15.0,76,0.00,,OVC075,0.00,VWS V14.01,2013-03-26 15:50:00,
2013-03-26 11:55:00,39.3,32.0,30.09,WNW,291,4.0,7.0,75,0.00,,OVC075,0.00,VWS V14.01,2013-03-26 15:55:00,
2013-03-26 12:01:00,39.5,31.9,30.09,NNW,341,3.0,10.0,74,0.00,,OVC075,0.00,VWS V14.01,2013-03-26 16:01:00,
2013-03-26 12:06:00,39.4,31.5,30.09,WNW,303,4.0,11.0,73,0.00,,OVC075,0.00,VWS V14.01,2013-03-26 16:06:00,
2013-03-26 12:11:00,39.5,31.6,30.09,WNW,302,9.0,10.0,73,0.00,,OVC075,0.00,VWS V14.01,2013-03-26 16:11:00,
2013-03-26 12:17:00,39.4,31.1,30.09,WNW,292,5.0,9.0,72,0.00,,OVC075,0.00,VWS V14.01,2013-03-26 16:17:00,
2013-03-26 12:23:00,39.4,31.1,30.09,West,274,4.0,9.0,72,0.00,,OVC075,0.00,VWS V14.01,2013-03-26 16:23:00,
2013-03-26 12:28:00,39.5,31.2,30.09,NW,311,6.0,15.0,72,0.00,,OVC075,0.00,VWS V14.01,2013-03-26 16:28:00,
2013-03-26 12:33:00,39.6,31.0,30.09,NW,315,5.0,9.0,71,0.00,,OVC075,0.00,VWS V14.01,2013-03-26 16:33:00,
2013-03-26 12:38:00,39.9,31.3,30.09,NNW,328,3.0,6.0,71,0.00,,OVC075,0.00,VWS V14.01,2013-03-26 16:38:00,
2013-03-26 12:44:00,40.0,31.4,30.09,NW,306,5.0,6.0,71,0.00,,OVC075,0.00,VWS V14.01,2013-03-26 16:44:00,
2013-03-26 12:49:00,40.5,32.2,30.08,NW,305,3.0,3.0,72,0.00,,OVC075,0.00,VWS V14.01,2013-03-26 16:49:00,
2013-03-26 12:54:00,40.9,32.2,30.08,NW,323,3.0,6.0,71,0.00,,OVC075,0.00,VWS V14.01,2013-03-26 16:54:00,
2013-03-26 12:59:00,41.8,32.8,30.08,NW,313,1.0,2.0,70,0.00,,OVC075,0.00,VWS V14.01,2013-03-26 16:59:00,
2013-03-26 13:04:00,42.8,32.6,30.08,NW,312,3.0,3.0,67,0.00,,OVC075,0.00,VWS V14.01,2013-03-26 17:04:00,
2013-03-26 13:09:00,43.0,31.3,30.08,NNW,341,3.0,9.0,63,0.00,,OVC075,0.00,VWS V14.01,2013-03-26 17:09:00,
2013-03-26 13:14:00,42.8,30.7,30.08,WNW,291,9.0,14.0,62,0.00,,OVC075,0.00,VWS V14.01,2013-03-26 17:14:00,
2013-03-26 13:19:00,42.3,30.6,30.08,West,259,9.0,11.0,63,0.00,,OVC075,0.00,VWS V14.01,2013-03-26 17:19:00,
2013-03-26 13:24:00,41.6,30.3,30.08,SW,236,9.0,10.0,64,0.00,,OVC075,0.00,VWS V14.01,2013-03-26 17:24:00,
2013-03-26 13:29:00,41.1,30.2,30.08,WSW,249,7.0,11.0,65,0.00,,OVC075,0.00,VWS V14.01,2013-03-26 17:29:00,
2013-03-26 13:34:00,40.6,30.1,30.08,WNW,298,1.0,13.0,66,0.00,,OVC075,0.00,VWS V14.01,2013-03-26 17:34:00,
2013-03-26 13:40:00,40.6,30.5,30.08,WNW,285,10.0,14.0,67,0.00,,OVC075,0.00,VWS V14.01,2013-03-26 17:40:00,
2013-03-26 13:45:00,40.6,30.5,30.08,NW,311,5.0,8.0,67,0.00,,OVC075,0.00,VWS V14.01,2013-03-26 17:45:00,
2013-03-26 13:50:00,40.7,31.0,30.08,WNW,298,1.0,7.0,68,0.00,,OVC075,0.00,VWS V14.01,2013-03-26 17:50:00,
2013-03-26 13:55:00,40.7,31.0,30.08,WNW,298,5.0,10.0,68,0.00,,OVC075,0.00,VWS V14.01,2013-03-26 17:55:00,
2013-03-26 14:01:00,40.7,31.0,30.08,WSW,249,7.0,7.0,68,0.00,,OVC075,0.00,VWS V14.01,2013-03-26 18:01:00,
2013-03-26 14:06:00,40.5,30.8,30.08,NW,326,1.0,12.0,68,0.00,,OVC075,0.00,VWS V14.01,2013-03-26 18:06:00,
2013-03-26 14:11:00,40.3,31.0,30.08,NNW,328,7.0,11.0,69,0.00,,OVC075,0.00,VWS V14.01,2013-03-26 18:11:00,
2013-03-26 14:16:00,40.1,31.1,30.08,WNW,303,4.0,9.0,70,0.00,,OVC075,0.00,VWS V14.01,2013-03-26 18:16:00,
2013-03-26 14:21:00,39.9,31.6,30.08,West,269,6.0,10.0,72,0.00,,OVC075,0.00,VWS V14.01,2013-03-26 18:21:00,
2013-03-26 14:26:00,39.8,31.9,30.08,NW,324,0.0,4.0,73,0.00,,,0.00,VWS V14.01,2013-03-26 18:26:00,
2013-03-26 14:32:00,39.7,31.8,30.08,West,276,4.0,8.0,73,0.00,,,0.00,VWS V14.01,2013-03-26 18:32:00,
2013-03-26 14:37:00,39.6,31.7,30.08,NW,322,6.0,13.0,73,0.00,,,0.00,VWS V14.01,2013-03-26 18:37:00,
2013-03-26 14:42:00,39.1,31.2,30.08,WNW,295,4.0,7.0,73,0.00,,,0.00,VWS V14.01,2013-03-26 18:42:00,
2013-03-26 14:47:00,38.7,31.1,30.08,WNW,293,2.0,10.0,74,0.00,,,0.00,VWS V14.01,2013-03-26 18:47:00,
2013-03-26 14:52:00,38.5,31.3,30.08,West,280,5.0,6.0,75,0.00,,,0.00,VWS V14.01,2013-03-26 18:52:00,
2013-03-26 14:57:00,38.6,31.7,30.08,West,263,7.0,7.0,76,0.00,,,0.00,VWS V14.01,2013-03-26 18:57:00,
2013-03-26 15:02:00,38.7,32.1,30.08,West,278,5.0,13.0,77,0.00,,,0.00,VWS V14.01,2013-03-26 19:02:00,
2013-03-26 15:07:00,38.3,31.7,30.08,West,268,3.0,8.0,77,0.00,,,0.00,VWS V14.01,2013-03-26 19:07:00,
2013-03-26 15:12:00,37.9,31.4,30.08,West,268,1.0,7.0,77,0.00,,,0.00,VWS V14.01,2013-03-26 19:12:00,
2013-03-26 15:17:00,37.9,31.7,30.08,West,269,3.0,9.0,78,0.00,,,0.00,VWS V14.01,2013-03-26 19:17:00,
2013-03-26 15:22:00,38.3,32.4,30.08,SSW,213,2.0,4.0,79,0.00,,,0.00,VWS V14.01,2013-03-26 19:22:00,
2013-03-26 15:28:00,38.8,33.2,30.08,West,274,3.0,13.0,80,0.00,,,0.00,VWS V14.01,2013-03-26 19:28:00,
2013-03-26 15:33:00,39.5,34.2,30.08,WSW,243,3.0,7.0,81,0.00,,,0.00,VWS V14.01,2013-03-26 19:33:00,
2013-03-26 15:38:00,39.3,33.3,30.08,WNW,283,6.0,9.0,79,0.00,,,0.00,VWS V14.01,2013-03-26 19:38:00,
2013-03-26 15:43:00,38.6,32.7,30.08,West,272,3.0,5.0,79,0.00,,,0.00,VWS V14.01,2013-03-26 19:43:00,
2013-03-26 15:49:00,38.3,32.4,30.08,WSW,253,2.0,6.0,79,0.01,,,0.01,VWS V14.01,2013-03-26 19:49:00,
2013-03-26 15:54:00,38.3,32.4,30.08,SW,232,6.0,12.0,79,0.01,,,0.01,VWS V14.01,2013-03-26 19:54:00,
2013-03-26 15:59:00,38.7,32.8,30.08,West,272,8.0,9.0,79,0.01,,,0.01,VWS V14.01,2013-03-26 19:59:00,
2013-03-26 16:04:00,39.0,32.7,30.08,WSW,257,4.0,13.0,78,0.01,,BKN180,0.01,VWS V14.01,2013-03-26 20:04:00,
2013-03-26 16:09:00,39.0,32.1,30.08,SW,227,2.0,6.0,76,0.01,,BKN180,0.01,VWS V14.01,2013-03-26 20:09:00,
2013-03-26 16:14:00,39.1,31.9,30.08,WSW,253,7.0,7.0,75,0.01,,BKN180,0.01,VWS V14.01,2013-03-26 20:14:00,
2013-03-26 16:20:00,39.2,32.3,30.08,WSW,252,1.0,7.0,76,0.01,,BKN180,0.01,VWS V14.01,2013-03-26 20:20:00,
2013-03-26 16:25:00,39.4,32.8,30.08,WNW,290,5.0,8.0,77,0.01,,BKN180,0.01,VWS V14.01,2013-03-26 20:25:00,
2013-03-26 16:30:00,39.8,33.2,30.07,West,270,4.0,10.0,77,0.01,,BKN180,0.01,VWS V14.01,2013-03-26 20:30:00,
2013-03-26 16:35:00,40.0,33.1,30.08,WSW,257,7.0,10.0,76,0.01,,BKN180,0.01,VWS V14.01,2013-03-26 20:35:00,
2013-03-26 16:40:00,40.0,32.7,30.08,West,272,5.0,14.0,75,0.01,,BKN180,0.01,VWS V14.01,2013-03-26 20:40:00,
2013-03-26 16:46:00,39.2,32.0,30.08,West,263,12.0,16.0,75,0.01,,BKN180,0.01,VWS V14.01,2013-03-26 20:46:00,
2013-03-26 16:51:00,37.8,31.9,30.08,WNW,290,3.0,4.0,79,0.01,,BKN180,0.01,VWS V14.01,2013-03-26 20:51:00,
2013-03-26 16:56:00,37.1,31.8,30.08,WNW,295,0.0,0.0,81,0.01,,BKN180,0.01,VWS V14.01,2013-03-26 20:56:00,
2013-03-26 17:02:00,36.6,31.6,30.08,WNW,291,0.0,0.0,82,0.00,,BKN095,0.01,VWS V14.01,2013-03-26 21:02:00,
2013-03-26 17:07:00,36.4,31.7,30.08,West,264,1.0,3.0,83,0.00,,BKN095,0.01,VWS V14.01,2013-03-26 21:07:00,
2013-03-26 17:13:00,36.3,31.9,30.08,WSW,243,0.0,2.0,84,0.00,,BKN095,0.01,VWS V14.01,2013-03-26 21:13:00,
2013-03-26 17:18:00,36.8,33.0,30.08,WSW,257,3.0,8.0,86,0.00,,BKN095,0.01,VWS V14.01,2013-03-26 21:18:00,
2013-03-26 17:23:00,37.0,33.2,30.08,West,265,0.0,3.0,86,0.00,,BKN095,0.01,VWS V14.01,2013-03-26 21:23:00,
2013-03-26 17:28:00,37.0,33.2,30.09,NW,323,1.0,4.0,86,0.00,,BKN095,0.01,VWS V14.01,2013-03-26 21:28:00,
2013-03-26 17:33:00,36.8,33.0,30.09,North,351,0.0,0.0,86,0.00,,BKN095,0.01,VWS V14.01,2013-03-26 21:33:00,
2013-03-26 17:38:00,36.4,32.6,30.09,NW,307,0.0,0.0,86,0.00,,BKN095,0.01,VWS V14.01,2013-03-26 21:38:00,
2013-03-26 17:43:00,36.1,32.3,30.09,NW,307,0.0,0.0,86,0.00,,BKN095,0.01,VWS V14.01,2013-03-26 21:43:00,
2013-03-26 17:49:00,35.8,32.3,30.08,NW,307,0.0,0.0,87,0.01,,BKN095,0.02,VWS V14.01,2013-03-26 21:49:00,
2013-03-26 17:54:00,35.8,32.3,30.08,NW,307,0.0,0.0,87,0.01,,BKN095,0.02,VWS V14.01,2013-03-26 21:54:00,
2013-03-26 17:59:00,35.8,32.3,30.08,WNW,299,0.0,0.0,87,0.01,,BKN095,0.02,VWS V14.01,2013-03-26 21:59:00,
2013-03-26 18:04:00,35.8,32.3,30.08,WNW,299,0.0,0.0,87,0.01,,,0.02,VWS V14.01,2013-03-26 22:04:00,
2013-03-26 18:09:00,35.8,32.3,30.09,WNW,293,0.0,0.0,87,0.01,,,0.02,VWS V14.01,2013-03-26 22:09:00,
2013-03-26 18:14:00,35.8,32.3,30.09,WNW,293,0.0,0.0,87,0.02,,,0.03,VWS V14.01,2013-03-26 22:14:00,
2013-03-26 18:20:00,35.8,32.3,30.09,WNW,293,0.0,0.0,87,0.02,,,0.03,VWS V14.01,2013-03-26 22:20:00,
2013-03-26 18:25:00,35.8,32.6,30.09,WNW,293,0.0,0.0,88,0.02,,,0.03,VWS V14.01,2013-03-26 22:25:00,
2013-03-26 18:30:00,35.8,32.6,30.09,WNW,293,0.0,0.0,88,0.02,,,0.03,VWS V14.01,2013-03-26 22:30:00,
2013-03-26 18:35:00,36.0,32.8,30.09,WNW,293,0.0,0.0,88,0.02,,,0.03,VWS V14.01,2013-03-26 22:35:00,
2013-03-26 18:40:00,36.2,33.0,30.09,WNW,293,0.0,0.0,88,0.02,,,0.03,VWS V14.01,2013-03-26 22:40:00,
2013-03-26 18:45:00,36.5,33.3,30.09,WNW,293,0.0,0.0,88,0.02,,,0.03,VWS V14.01,2013-03-26 22:45:00,
2013-03-26 18:51:00,36.7,33.5,30.10,NNE,31,4.0,4.0,88,0.03,,,0.04,VWS V14.01,2013-03-26 22:51:00,
2013-03-26 18:56:00,36.7,33.5,30.10,NE,36,0.0,0.0,88,0.03,,,0.04,VWS V14.01,2013-03-26 22:56:00,
2013-03-26 19:01:00,36.6,33.4,30.10,NE,36,0.0,0.0,88,0.02,,,0.04,VWS V14.01,2013-03-26 23:01:00,
2013-03-26 19:06:00,36.5,33.3,30.10,NE,36,0.0,0.0,88,0.02,,,0.04,VWS V14.01,2013-03-26 23:06:00,
2013-03-26 19:12:00,36.4,33.2,30.11,NE,36,0.0,0.0,88,0.02,,BKN060,0.04,VWS V14.01,2013-03-26 23:12:00,
2013-03-26 19:17:00,36.3,33.1,30.11,NE,36,0.0,0.0,88,0.01,,BKN060,0.04,VWS V14.01,2013-03-26 23:17:00,
2013-03-26 19:22:00,36.2,33.0,30.11,NNE,29,0.0,0.0,88,0.01,,BKN060,0.04,VWS V14.01,2013-03-26 23:22:00,
2013-03-26 19:27:00,36.2,33.0,30.11,NW,326,0.0,4.0,88,0.01,,BKN060,0.04,VWS V14.01,2013-03-26 23:27:00,
2013-03-26 19:33:00,36.0,32.5,30.11,NNW,327,0.0,0.0,87,0.01,,BKN060,0.04,VWS V14.01,2013-03-26 23:33:00,
2013-03-26 19:38:00,36.0,32.5,30.11,NNW,327,0.0,0.0,87,0.01,,BKN060,0.04,VWS V14.01,2013-03-26 23:38:00,
2013-03-26 19:43:00,35.9,32.7,30.11,NNW,327,0.0,0.0,88,0.01,,BKN060,0.04,VWS V14.01,2013-03-26 23:43:00,
2013-03-26 19:48:00,35.8,32.6,30.11,NNW,327,0.0,0.0,88,0.01,,BKN060,0.04,VWS V14.01,2013-03-26 23:48:00,
2013-03-26 19:53:00,35.8,32.6,30.11,NNW,327,0.0,0.0,88,0.01,,BKN060,0.04,VWS V14.01,2013-03-26 23:53:00,
2013-03-26 19:59:00,35.8,32.6,30.11,NNW,327,0.0,0.0,88,0.01,,BKN060,0.04,VWS V14.01,2013-03-26 23:59:00,
2013-03-26 20:04:00,35.8,32.6,30.11,NNW,327,0.0,0.0,88,0.00,,,0.04,VWS V14.01,2013-03-27 00:04:00,
2013-03-26 20:09:00,35.8,32.6,30.11,NNW,327,0.0,0.0,88,0.00,,,0.04,VWS V14.01,2013-03-27 00:09:00,
2013-03-26 20:14:00,35.8,32.6,30.11,NNW,327,0.0,0.0,88,0.00,,,0.04,VWS V14.01,2013-03-27 00:14:00,
2013-03-26 20:19:00,35.8,32.3,30.12,NNW,327,0.0,0.0,87,0.00,,,0.04,VWS V14.01,2013-03-27 00:19:00,
2013-03-26 20:24:00,35.8,32.3,30.12,NW,326,2.0,2.0,87,0.00,,,0.04,VWS V14.01,2013-03-27 00:24:00,
2013-03-26 20:30:00,35.8,32.3,30.12,NW,317,3.0,4.0,87,0.00,,,0.04,VWS V14.01,2013-03-27 00:30:00,
2013-03-26 20:35:00,35.8,32.3,30.12,WNW,297,3.0,5.0,87,0.00,,,0.04,VWS V14.01,2013-03-27 00:35:00,
2013-03-26 20:40:00,35.8,32.3,30.12,NW,304,7.0,7.0,87,0.00,,,0.04,VWS V14.01,2013-03-27 00:40:00,
2013-03-26 20:45:00,35.8,32.3,30.12,NW,306,3.0,3.0,87,0.00,,,0.04,VWS V14.01,2013-03-27 00:45:00,
2013-03-26 20:50:00,36.0,32.2,30.12,WNW,286,9.0,10.0,86,0.00,,,0.04,VWS V14.01,2013-03-27 00:50:00,
2013-03-26 20:55:00,36.1,32.0,30.13,West,275,8.0,10.0,85,0.00,,,0.04,VWS V14.01,2013-03-27 00:55:00,
2013-03-26 21:00:00,36.2,31.8,30.13,WNW,290,6.0,6.0,84,0.00,,,0.04,VWS V14.01,2013-03-27 01:00:00,
2013-03-26 21:06:00,36.2,31.8,30.13,NW,304,2.0,6.0,84,0.00,,OVC090,0.04,VWS V14.01,2013-03-27 01:06:00,
2013-03-26 21:11:00,36.2,31.5,30.13,West,276,4.0,5.0,83,0.00,,OVC090,0.04,VWS V14.01,2013-03-27 01:11:00,
2013-03-26 21:16:00,36.2,31.2,30.13,WNW,295,0.0,5.0,82,0.00,,OVC090,0.04,VWS V14.01,2013-03-27 01:16:00,
2013-03-26 21:21:00,36.2,31.2,30.13,NW,309,4.0,5.0,82,0.00,,OVC090,0.04,VWS V14.01,2013-03-27 01:21:00,
2013-03-26 21:26:00,36.2,30.9,30.14,WNW,287,4.0,10.0,81,0.00,,OVC090,0.04,VWS V14.01,2013-03-27 01:26:00,
2013-03-26 21:32:00,36.1,30.8,30.14,WNW,282,4.0,8.0,81,0.00,,OVC090,0.04,VWS V14.01,2013-03-27 01:32:00,
2013-03-26 21:37:00,36.1,30.5,30.14,WNW,290,4.0,7.0,80,0.00,,OVC090,0.04,VWS V14.01,2013-03-27 01:37:00,
2013-03-26 21:43:00,36.0,30.4,30.14,WNW,288,6.0,10.0,80,0.00,,OVC090,0.04,VWS V14.01,2013-03-27 01:43:00,
2013-03-26 21:48:00,36.1,30.5,30.14,WNW,299,2.0,6.0,80,0.00,,OVC090,0.04,VWS V14.01,2013-03-27 01:48:00,
2013-03-26 21:53:00,36.0,30.1,30.15,NW,305,4.0,4.0,79,0.00,,OVC090,0.04,VWS V14.01,2013-03-27 01:53:00,
2013-03-26 21:58:00,36.0,30.1,30.15,WNW,302,2.0,7.0,79,0.00,,OVC090,0.04,VWS V14.01,2013-03-27 01:58:00,
2013-03-26 22:03:00,35.9,30.0,30.15,West,264,7.0,7.0,79,0.00,,OVC090,0.04,VWS V14.01,2013-03-27 02:03:00,
2013-03-26 22:09:00,35.8,29.9,30.15,NNW,333,2.0,7.0,79,0.00,,OVC090,0.04,VWS V14.01,2013-03-27 02:09:00,
2013-03-26 22:14:00,35.8,29.9,30.15,WNW,293,4.0,10.0,79,0.00,,OVC090,0.04,VWS V14.01,2013-03-27 02:14:00,
2013-03-26 22:19:00,35.8,29.9,30.15,NW,310,6.0,13.0,79,0.00,,OVC090,0.04,VWS V14.01,2013-03-27 02:19:00,
2013-03-26 22:24:00,35.8,29.9,30.15,NW,315,6.0,8.0,79,0.00,,OVC090,0.04,VWS V14.01,2013-03-27 02:24:00,
2013-03-26 22:29:00,35.8,29.9,30.15,WNW,289,3.0,5.0,79,0.00,,OVC090,0.04,VWS V14.01,2013-03-27 02:29:00,
2013-03-26 22:34:00,35.8,29.9,30.15,WNW,290,5.0,7.0,79,0.00,,OVC090,0.04,VWS V14.01,2013-03-27 02:34:00,
2013-03-26 22:39:00,35.8,30.2,30.16,NW,305,0.0,1.0,80,0.00,,OVC090,0.04,VWS V14.01,2013-03-27 02:39:00,
2013-03-26 22:45:00,35.8,30.2,30.16,WNW,292,3.0,7.0,80,0.00,,OVC090,0.04,VWS V14.01,2013-03-27 02:45:00,
2013-03-26 22:50:00,35.8,30.2,30.16,WNW,296,4.0,4.0,80,0.00,,OVC090,0.04,VWS V14.01,2013-03-27 02:50:00,
2013-03-26 22:55:00,35.8,30.2,30.16,NW,326,8.0,8.0,80,0.00,,OVC090,0.04,VWS V14.01,2013-03-27 02:55:00,
2013-03-26 23:00:00,35.8,30.2,30.16,NW,304,3.0,8.0,80,0.00,,OVC090,0.04,VWS V14.01,2013-03-27 03:00:00,
2013-03-26 23:05:00,35.8,30.2,30.16,WNW,282,6.0,11.0,80,0.00,,OVC090,0.04,VWS V14.01,2013-03-27 03:05:00,
2013-03-26 23:10:00,35.8,30.2,30.16,WNW,288,5.0,7.0,80,0.01,,OVC090,0.05,VWS V14.01,2013-03-27 03:10:00,
2013-03-26 23:15:00,35.8,30.2,30.16,WNW,294,5.0,7.0,80,0.01,,OVC090,0.05,VWS V14.01,2013-03-27 03:15:00,
2013-03-26 23:20:00,35.7,30.5,30.16,WNW,289,4.0,6.0,81,0.01,,OVC090,0.05,VWS V14.01,2013-03-27 03:20:00,
2013-03-26 23:26:00,35.7,30.5,30.16,West,272,6.0,6.0,81,0.01,,OVC090,0.05,VWS V14.01,2013-03-27 03:26:00,
2013-03-26 23:31:00,35.7,30.5,30.16,NW,323,5.0,6.0,81,0.01,,OVC090,0.05,VWS V14.01,2013-03-27 03:31:00,
2013-03-26 23:36:00,35.7,30.5,30.16,WNW,293,5.0,10.0,81,0.01,,OVC090,0.05,VWS V14.01,2013-03-27 03:36:00,
2013-03-26 23:42:00,35.7,30.8,30.16,West,279,3.0,5.0,82,0.01,,OVC090,0.05,VWS V14.01,2013-03-27 03:42:00,
2013-03-26 23:47:00,35.6,30.7,30.16,WNW,288,2.0,6.0,82,0.01,,OVC090,0.05,VWS V14.01,2013-03-27 03:47:00,
2013-03-26 23:52:00,35.6,30.7,30.16,WNW,290,0.0,6.0,82,0.01,,OVC090,0.05,VWS V14.01,2013-03-27 03:52:00,
2013-03-26 23:57:00,35.6,30.7,30.16,WNW,297,0.0,0.0,82,0.01,,OVC090,0.05,VWS V14.01,2013-03-27 03:57:00,